"2009-12-30 00:00:00",1546844,1.412,0.229,11.46,1.009,3.238,100.6452,0.946,2.203,28.01,0,109.6,13.56,1.70,322.2
"2009-12-30 00:00:30",1546845,2.257,18.43,8.07,1.058,3.621,100.6452,0.946,2.04,27.89,0,109.6,13.56,1.70,340.4
"2009-12-30 00:01:00",1546846,1.174,4.522,3.866,0.156,1.427,100.6452,0.946,2.083,27.93,0,109.6,13.59,1.70,326.5
"2009-12-30 00:01:30",1546847,2.271,5.755,12.57,1.104,3.474,100.6452,0.946,2.066,27.87,0,109.6,13.56,1.70,327.8
"2009-12-30 00:02:00",1546848,1.616,358.5,5.599,0.978,2.904,100.6452,0.946,2.136,27.85,0,109.6,13.56,1.70,320.5
"2009-12-30 00:02:30",1546849,1.819,0.372,10.33,1.048,3.83,100.6452,0.946,2.134,27.8,0,109.6,13.56,1.70,322.4
"2009-12-30 00:03:00",1546850,1.844,13.97,11.16,1.195,5.202,100.6452,0.946,2.253,27.89,0,109.6,13.56,1.70,336.0
"2009-12-30 00:03:30",1546851,1.462,18.29,7.587,1.069,3.075,100.6452,0.946,2.003,27.63,0,109.6,13.56,1.70,340.3
"2009-12-30 00:04:00",1546852,2.005,23.71,11.13,1.317,2.787,100.6452,0.946,2.032,27.68,0,109.6,13.56,1.70,345.7
"2009-12-30 00:04:30",1546853,1.334,15.43,13.32,1.217,3.05,100.6452,0.946,2.182,27.82,0,109.6,13.57,1.70,337.4
"2009-12-30 00:05:00",1546854,2.196,22.54,10.12,1.315,3.954,100.6452,0.946,2.127,27.81,0,109.6,13.57,1.70,344.5
"2009-12-30 00:05:30",1546855,1.683,19.78,7.683,1.196,3.123,100.6452,0.946,2.121,27.89,0,109.6,13.57,1.70,341.8
"2009-12-30 00:06:00",1546856,1.61,18.55,5.649,0.93,2.765,100.6452,0.946,2.1,27.92,0,109.6,13.57,1.70,340.5
"2009-12-30 00:06:30",1546857,2.493,20.73,5.667,1.139,5.695,100.6452,0.946,2.236,28.05,0,109.6,13.57,1.70,342.7
"2009-12-30 00:07:00",1546858,1.717,5.629,9.95,1.191,3.962,100.6452,0.946,2.075,27.86,0,109.6,13.57,1.70,327.6
"2009-12-30 00:07:30",1546859,0.755,357.7,6.089,0.155,1.725,100.6452,0.946,1.991,27.74,0,109.6,13.61,1.70,319.7
"2009-12-30 00:08:00",1546860,0.922,358,5.011,0.199,1.491,100.6452,0.946,1.992,27.76,0,109.6,13.61,1.70,320.0
"2009-12-30 00:08:30",1546861,2.287,6.157,7.017,1.286,4.276,100.6452,0.946,2.217,28.03,0,109.6,13.57,1.70,328.2
"2009-12-30 00:09:00",1546862,2.632,2.163,6.852,1.281,4.774,100.6452,0.946,2.179,28.03,0,109.6,13.57,1.70,324.2
"2009-12-30 00:09:30",1546863,2.213,358.1,5.979,1.306,3.413,100.6449,0.945,2.001,27.87,0,109.6,13.57,1.70,320.1
"2009-12-30 00:10:00",1546864,3.023,359.8,7.43,1.236,4.872,100.6452,0.946,2.217,28.07,0,109.6,13.57,1.70,321.8
"2009-12-30 00:10:30",1546865,2.992,357.9,6.545,1.258,5.017,100.6452,0.946,2.239,28.07,0,109.6,13.57,1.70,319.9
"2009-12-30 00:11:00",1546866,1.185,356.7,3.279,0.127,1.838,100.6449,0.945,1.99,27.78,0,109.6,13.61,1.70,318.7
"2009-12-30 00:11:30",1546867,1.371,351.5,2.534,0.114,1.669,100.6435,0.941,1.993,27.73,0,109.6,13.61,1.70,313.5
"2009-12-30 00:12:00",1546868,3.34,358.7,5.312,1.098,5.602,100.644,0.943,2.173,27.86,0,109.6,13.57,1.70,320.7
"2009-12-30 00:12:30",1546869,3.589,355.1,6.847,1.017,5.485,100.6437,0.942,2.229,27.9,0,109.6,13.57,1.70,317.1
"2009-12-30 00:13:00",1546870,1.236,0.584,11.5,0.873,2.69,100.6415,0.936,2.067,27.73,0,109.6,13.58,1.69,322.6
"2009-12-30 00:13:30",1546871,2.135,3.132,12.53,1.25,4.533,100.6423,0.938,2.254,27.88,0,109.6,13.57,1.69,325.1
"2009-12-30 00:14:00",1546872,2.614,358.3,10.23,1.207,4.828,100.6409,0.935,2.188,27.82,0,109.6,13.57,1.69,320.3
"2009-12-30 00:14:30",1546873,1.012,349.7,7.119,0.182,1.654,100.6404,0.933,1.981,27.63,0,109.6,13.61,1.69,311.7
"2009-12-30 00:15:00",1546874,0.946,351.7,2.507,0.098,1.551,100.6378,0.927,1.974,27.7,0,109.6,13.61,1.68,313.7
"2009-12-30 00:15:30",1546875,0.885,357.6,2.429,0.099,1.718,100.6395,0.931,2.049,27.8,0,109.6,13.57,1.69,319.6
"2009-12-30 00:16:00",1546876,2.401,9.69,6.14,1.224,5.029,100.6395,0.931,2.126,27.78,0,109.6,13.57,1.69,331.7
"2009-12-30 00:16:30",1546877,2.78,35.06,9.57,1.122,5.459,100.6406,0.934,2.232,27.87,0,109.6,13.57,1.69,357.1
"2009-12-30 00:17:00",1546878,1.804,48.15,6.769,1.213,4.073,100.6418,0.937,2.183,27.75,0,109.6,13.57,1.69,10.2
"2009-12-30 00:17:30",1546879,0.918,0.387,26.4,1.167,2.805,100.6435,0.941,2.051,27.57,0,109.6,13.57,1.70,322.4
"2009-12-30 00:18:00",1546880,1.595,6.461,14.54,1.325,3.674,100.6461,0.948,2.086,27.65,0,109.6,13.57,1.70,328.5
"2009-12-30 00:18:30",1546881,0.457,1.279,7.82,0.14,1.171,100.6461,0.948,1.997,27.63,0,109.6,13.61,1.70,323.3
"2009-12-30 00:19:00",1546882,0.519,2.516,6.09,0.1,1.244,100.6478,0.952,1.982,27.76,0,109.6,13.61,1.71,324.5
"2009-12-30 00:19:30",1546883,1.829,2.324,6.458,1.277,3.674,100.6489,0.955,2.083,27.95,0,109.6,13.57,1.71,324.3
"2009-12-30 00:20:00",1546884,1.59,359.1,6.379,1.186,3.55,100.6484,0.954,2.169,28.11,0,109.6,13.58,1.71,321.1
"2009-12-30 00:20:30",1546885,1.629,359.3,7.513,1.157,3.647,100.6498,0.957,2.105,28.08,0,109.6,13.58,1.71,321.3
"2009-12-30 00:21:00",1546886,2.666,6.036,8.59,1.074,5.428,100.6515,0.962,2.176,28.15,0,109.6,13.58,1.72,328.0
"2009-12-30 00:21:30",1546887,2.107,7.397,8.15,1.264,4.43,100.6515,0.962,2.238,28.21,0,109.6,13.58,1.72,329.4
"2009-12-30 00:22:00",1546888,1.874,2.438,7.227,1.231,3.603,100.6493,0.956,2.136,28.24,0,109.6,13.58,1.71,324.4
"2009-12-30 00:22:30",1546889,0.99,358.5,4.271,0.184,1.271,100.6498,0.957,1.979,28.21,0,109.6,13.62,1.71,320.5
"2009-12-30 00:23:00",1546890,1.483,7.577,8.98,1.137,2.137,100.6478,0.952,1.991,28.32,0,109.6,13.58,1.71,329.6
"2009-12-30 00:23:30",1546891,1.576,13.03,8.21,1.191,3.062,100.6504,0.959,2.163,28.62,0,109.6,13.58,1.71,335.0
"2009-12-30 00:24:00",1546892,1.982,18.57,6.949,1.228,3.585,100.651,0.96,2.196,28.73,0,109.6,13.59,1.72,340.6
"2009-12-30 00:24:30",1546893,2.063,18.79,7.827,1.262,3.642,100.651,0.96,2.079,28.62,0,109.6,13.59,1.72,340.8
"2009-12-30 00:25:00",1546894,2.595,13.98,7.964,1.134,4.826,100.6479,0.952,2.25,28.81,0,109.6,13.58,1.71,336.0
"2009-12-30 00:25:30",1546895,2.811,9.3,6.914,1.239,4.63,100.645,0.945,2.162,28.73,0,109.6,13.59,1.70,331.3
"2009-12-30 00:26:00",1546896,1.234,2.417,2.591,0.113,1.727,100.6405,0.934,1.998,28.5,0,109.6,13.62,1.69,324.4
"2009-12-30 00:26:30",1546897,1.93,8.54,6.684,1.129,3.092,100.638,0.927,2.135,28.57,0,109.6,13.59,1.68,330.5
"2009-12-30 00:27:00",1546898,2.593,13.27,6.584,1.218,3.832,100.6388,0.929,2.144,28.51,0,109.6,13.59,1.68,335.3
"2009-12-30 00:27:30",1546899,2.638,17.63,6.943,1.249,4.235,100.6403,0.933,2.091,28.47,0,109.6,13.59,1.69,339.6
"2009-12-30 00:28:00",1546900,1.228,10.25,2.761,0.11,1.614,100.642,0.937,1.967,28.37,0,109.6,13.62,1.69,332.2
"2009-12-30 00:28:30",1546901,2.394,18.42,8.43,1.205,3.892,100.6397,0.932,2.252,28.64,0,109.6,13.59,1.69,340.4
"2009-12-30 00:29:00",1546902,3.368,28.03,5.777,1.137,5.189,100.6403,0.933,2.153,28.59,0,109.6,13.59,1.69,350.0
"2009-12-30 00:29:30",1546903,2.619,23.62,6.896,1.255,3.279,100.6422,0.938,2.067,28.61,0,109.6,13.59,1.69,345.6
"2009-12-30 00:30:00",1546904,2.352,21.71,6.236,1.101,2.868,100.6422,0.938,2.143,28.78,0,109.6,13.59,1.69,343.7
"2009-12-30 00:30:30",1546905,2.678,23.19,6.285,1.216,3.271,100.6431,0.94,2.077,28.78,0,109.6,13.59,1.70,345.2
"2009-12-30 00:31:00",1546906,2.575,23.37,6.609,1.231,3.409,100.636,0.922,2.076,28.79,0,109.6,13.59,1.68,345.4
"2009-12-30 00:31:30",1546907,1.564,15.02,2.045,0.063,1.528,100.6326,0.914,1.964,28.66,0,109.6,13.62,1.67,337.0
"2009-12-30 00:32:00",1546908,2.416,11.36,6.913,1.173,4.867,100.6202,0.882,2.178,28.68,0,109.6,13.59,1.64,333.4
"2009-12-30 00:32:30",1546909,2.575,3.561,6.508,1.185,5.528,100.6145,0.867,2.17,28.44,0,109.6,13.59,1.62,325.6
"2009-12-30 00:33:00",1546910,2.875,1.333,6.586,1.143,5.626,100.61,0.856,2.144,28.2,0,109.6,13.59,1.61,323.3
"2009-12-30 00:33:30",1546911,2.982,355.4,6.255,1.107,5.018,100.6103,0.857,2.072,28.09,0,109.6,13.59,1.61,317.4
"2009-12-30 00:34:00",1546912,2.076,350.9,5.273,1.22,3.182,100.6111,0.859,1.999,27.97,0,109.6,13.59,1.61,312.9
"2009-12-30 00:34:30",1546913,1.254,356,7.042,0.904,2.632,100.6114,0.86,2.009,27.96,0,109.6,13.59,1.61,318.0
"2009-12-30 00:35:00",1546914,0.658,356.6,9.5,0.195,1.251,100.6111,0.859,1.912,27.87,0,109.6,13.62,1.61,318.6
"2009-12-30 00:35:30",1546915,1.556,9.82,12.69,1.3,3.637,100.6114,0.86,2.019,28.03,0,109.6,13.59,1.61,331.8
"2009-12-30 00:36:00",1546916,1.242,3.385,10.06,1.198,3.401,100.6111,0.859,2.058,28.18,0,109.6,13.59,1.61,325.4
"2009-12-30 00:36:30",1546917,1.743,6.768,8.91,1.207,4.017,100.6111,0.859,2.074,28.43,0,109.6,13.59,1.61,328.8
"2009-12-30 00:37:00",1546918,2.712,10.38,6.874,1.062,5.358,100.6114,0.86,2.101,28.59,0,109.6,13.59,1.61,332.4
"2009-12-30 00:37:30",1546919,1.895,6.637,7.041,1.246,3.94,100.6106,0.857,2.117,28.68,0,109.6,13.59,1.61,328.6
"2009-12-30 00:38:00",1546920,1.892,5.902,8.59,1.189,3.039,100.6091,0.854,1.948,28.54,0,109.6,13.6,1.61,327.9
"2009-12-30 00:38:30",1546921,1.004,359.5,4.614,0.116,1.062,100.6072,0.849,1.867,28.48,0,109.6,13.62,1.60,321.5
"2009-12-30 00:39:00",1546922,2.331,1.633,6.704,1.285,3.142,100.6043,0.841,1.917,28.47,0,109.6,13.6,1.60,323.6
"2009-12-30 00:39:30",1546923,1.498,358,6.133,0.91,2.909,100.6038,0.84,2.031,28.54,0,109.6,13.6,1.60,320.0
"2009-12-30 00:40:00",1546924,1.951,1.991,7.123,1.269,3.847,100.5998,0.83,1.964,28.42,0,109.6,13.6,1.58,324.0
"2009-12-30 00:40:30",1546925,2.691,8.97,7.307,1.125,6.033,100.5995,0.829,2.1,28.52,0,109.6,13.6,1.58,331.0
"2009-12-30 00:41:00",1546926,2.916,7.864,5.883,0.956,6.073,100.5953,0.818,2.141,28.54,0,109.6,13.6,1.57,329.9
"2009-12-30 00:41:30",1546927,1.208,356,6.017,0.642,2.045,100.5947,0.817,1.935,28.32,0,109.6,13.6,1.57,318.0
"2009-12-30 00:42:00",1546928,0.854,357.6,3.67,0.146,1.114,100.5953,0.818,1.867,28.2,0,109.6,13.63,1.57,319.6
"2009-12-30 00:42:30",1546929,0.706,359.8,4.725,0.115,1.177,100.5941,0.815,1.862,28.2,0,109.6,13.63,1.57,321.8
"2009-12-30 00:43:00",1546930,1.637,15.59,8.28,1.261,3.384,100.591,0.808,1.911,28.24,0,109.6,13.6,1.56,337.6
"2009-12-30 00:43:30",1546931,1.835,23.61,7.497,1.206,4.084,100.5913,0.808,2.069,28.37,0,109.6,13.6,1.56,345.6
"2009-12-30 00:44:00",1546932,1.944,23.33,7.141,1.293,4.011,100.591,0.808,1.894,28.21,0,109.6,13.6,1.56,345.3
"2009-12-30 00:44:30",1546933,2.467,23.39,8.17,1.201,5.053,100.5885,0.801,2.079,28.37,0,109.6,13.6,1.56,345.4
"2009-12-30 00:45:00",1546934,2.622,19.4,5.757,1.171,5.268,100.5905,0.806,2.077,28.4,0,109.6,13.6,1.56,341.4
"2009-12-30 00:45:30",1546935,1.148,13.06,6.742,0.955,1.911,100.5913,0.808,1.84,28.15,0,109.6,13.6,1.56,335.1
"2009-12-30 00:46:00",1546936,1.006,18.18,2.412,0.119,0.878,100.5899,0.805,1.858,28.16,0,109.6,13.63,1.56,340.2
"2009-12-30 00:46:30",1546937,1.016,20.96,2.593,0.152,1.175,100.584,0.789,1.904,28.19,0,109.6,13.64,1.54,343.0
"2009-12-30 00:47:00",1546938,2.603,31.31,6.962,1.241,4.465,100.582,0.784,1.987,28.24,0,109.6,13.6,1.54,353.3
"2009-12-30 00:47:30",1546939,2.751,33.02,6.366,1.215,5.548,100.5794,0.778,2.076,28.35,0,109.6,13.6,1.53,355.0
"2009-12-30 00:48:00",1546940,2.313,25.41,6.905,1.195,4.158,100.5786,0.776,1.944,28.21,0,109.6,13.6,1.53,347.4
"2009-12-30 00:48:30",1546941,2.338,25.71,6.873,1.18,4.339,100.5777,0.774,2.098,28.34,0,109.6,13.6,1.53,347.7
"2009-12-30 00:49:00",1546942,1.595,22.93,5.604,0.902,2.742,100.5774,0.773,2.023,28.29,0,109.6,13.6,1.53,344.9
"2009-12-30 00:49:30",1546943,2.002,24.91,5.37,0.94,1.884,100.5774,0.773,1.877,28.18,0,109.6,13.59,1.53,346.9
"2009-12-30 00:50:00",1546944,1.629,23.92,3.772,0.167,1.136,100.5774,0.773,1.883,28.33,0,109.6,13.63,1.53,345.9
"2009-12-30 00:50:30",1546945,2.864,29.38,6.304,1.231,4.684,100.5774,0.773,2.082,28.59,0,109.6,13.6,1.53,351.4
"2009-12-30 00:51:00",1546946,3.522,28.96,4.472,1.123,5.56,100.5774,0.773,2.084,28.62,0,109.6,13.6,1.53,351.0
"2009-12-30 00:51:30",1546947,2.957,25.08,6.659,1.2,4.633,100.5774,0.773,1.96,28.54,0,109.6,13.6,1.53,347.1
"2009-12-30 00:52:00",1546948,1.755,20.9,6.897,0.971,2.591,100.5774,0.773,2.002,28.6,0,109.6,13.6,1.53,342.9
"2009-12-30 00:52:30",1546949,2.662,22.83,6.24,1.068,3.345,100.5741,0.764,1.861,28.45,0,109.6,13.6,1.52,344.8
"2009-12-30 00:53:00",1546950,1.751,18.34,1.731,0.248,0.967,100.5684,0.75,1.876,28.54,0,109.6,13.63,1.50,340.3
"2009-12-30 00:53:30",1546951,2.936,22.42,7.38,1.233,2.724,100.5607,0.73,1.944,28.74,0,109.6,13.6,1.48,344.4
"2009-12-30 00:54:00",1546952,4.004,29.19,5.815,1.138,5.253,100.552,0.708,2.044,29.04,0,109.6,13.6,1.46,351.2
"2009-12-30 00:54:30",1546953,3.809,28.17,6.737,1.243,5.065,100.5438,0.687,2.002,29.2,0,109.6,13.6,1.44,350.2
"2009-12-30 00:55:00",1546954,2.968,23.5,6.548,1.229,3.644,100.5435,0.686,1.938,29.25,0,109.6,13.6,1.44,345.5
"2009-12-30 00:55:30",1546955,2.367,19.77,6.011,1.157,2.014,100.5435,0.686,1.83,29.23,0,109.6,13.6,1.44,341.8
"2009-12-30 00:56:00",1546956,3.346,25.63,6.348,1.36,3.269,100.5435,0.686,1.894,29.28,0,109.6,13.6,1.44,347.6
"2009-12-30 00:56:30",1546957,3.651,30.58,8.02,1.147,3.006,100.5435,0.686,1.921,29.25,0,109.6,13.6,1.44,352.6
"2009-12-30 00:57:00",1546958,4.307,37.81,6.002,1.166,4.64,100.5435,0.686,2.006,28.75,0,109.6,13.6,1.44,359.8
"2009-12-30 00:57:30",1546959,4.07,33.41,8.4,1.096,4.912,100.5392,0.675,1.979,28.8,0,109.6,13.6,1.43,355.4
"2009-12-30 00:58:00",1546960,3.045,23.03,6.129,1.219,3.36,100.5265,0.643,1.789,28.93,0,109.6,13.6,1.40,345.0
"2009-12-30 00:58:30",1546961,3.141,28.26,6.891,1.103,3.243,100.5174,0.62,1.995,29.27,0,109.6,13.6,1.37,350.3
"2009-12-30 00:59:00",1546962,2.607,25.54,4.532,0.892,1.325,100.5095,0.6,1.774,29.12,0,109.6,13.6,1.35,347.5
"2009-12-30 00:59:30",1546963,3.302,33.71,6.545,1.247,3.869,100.5095,0.6,1.896,29.2,0,109.6,13.6,1.35,355.7
"2009-12-30 01:00:00",1546964,3.813,37.87,5.897,1.187,4.436,100.5095,0.6,1.866,28.99,0,109.6,13.6,1.35,359.9
"2009-12-30 01:00:30",1546965,3.667,29.13,6.243,1.131,4.708,100.5072,0.594,1.933,29.11,0,109.6,13.6,1.35,351.1
"2009-12-30 01:01:00",1546966,2.737,6.041,6.984,1.218,4.448,100.4973,0.569,1.805,29.12,0,109.6,13.6,1.32,328.0
"2009-12-30 01:01:30",1546967,1.46,355.3,2.418,0.105,1.802,100.4874,0.543,1.647,28.83,0,109.6,13.64,1.30,317.3
"2009-12-30 01:02:00",1546968,2.444,2.369,6.925,1.146,3.75,100.4784,0.52,1.805,28.93,0,109.6,13.6,1.27,324.4
"2009-12-30 01:02:30",1546969,1.494,8.76,10.42,1.025,2.624,100.4755,0.513,1.742,28.92,0,109.6,13.61,1.27,330.8
"2009-12-30 01:03:00",1546970,1.55,14.88,7.431,1.128,2.399,100.4755,0.513,1.771,29.1,0,109.7,13.61,1.27,336.9
"2009-12-30 01:03:30",1546971,4.093,28.62,5.931,1.204,4.054,100.4755,0.513,1.819,29.24,0,109.6,13.61,1.27,350.6
"2009-12-30 01:04:00",1546972,3.69,33.4,6.54,1.163,4.001,100.4755,0.513,1.839,29.18,0,109.7,13.61,1.27,355.4
"2009-12-30 01:04:30",1546973,3.25,30.07,5.751,1.204,2.435,100.4755,0.513,1.691,28.15,0,109.6,13.6,1.27,352.1
"2009-12-30 01:05:00",1546974,2.589,27.69,1.365,0.209,0.485,100.4741,0.509,1.639,27.51,0,109.6,13.64,1.26,349.7
"2009-12-30 01:05:30",1546975,3.965,32.82,5.734,1.213,3.561,100.4634,0.482,1.83,28.08,0,109.6,13.6,1.24,354.8
"2009-12-30 01:06:00",1546976,4.343,31.85,6.7,1.241,4.067,100.4574,0.467,1.704,28.7,0,109.6,13.6,1.22,353.9
"2009-12-30 01:06:30",1546977,4.529,29.76,6.042,1.137,4.449,100.4489,0.445,1.772,29.14,0,109.6,13.6,1.20,351.8
"2009-12-30 01:07:00",1546978,4.75,30.01,5.869,1.085,4.938,100.4424,0.429,1.79,29.47,0,109.6,13.6,1.18,352.0
"2009-12-30 01:07:30",1546979,3.646,24.93,7.096,1.173,2.874,100.4416,0.426,1.685,29.56,0,109.6,13.6,1.18,346.9
"2009-12-30 01:08:00",1546980,3.745,24.04,6.245,1.195,2.758,100.4416,0.426,1.607,29.63,0,109.6,13.6,1.18,346.0
"2009-12-30 01:08:30",1546981,4.064,26.76,5.669,1.154,4.56,100.4416,0.426,1.702,29.85,0,109.6,13.6,1.18,348.8
"2009-12-30 01:09:00",1546982,3.609,24.65,6.46,1.201,3.787,100.4413,0.426,1.651,29.87,0,109.6,13.6,1.18,346.6
"2009-12-30 01:09:30",1546983,4.118,28.26,5.458,1.194,4.845,100.4382,0.418,1.704,29.99,0,109.7,13.6,1.17,350.3
"2009-12-30 01:10:00",1546984,3.497,15.35,7.687,1.085,5.429,100.4257,0.386,1.739,30.11,0,109.6,13.6,1.14,337.4
"2009-12-30 01:10:30",1546985,2.446,2.755,6.733,1.146,3.349,100.4124,0.352,1.581,29.85,0,109.6,13.61,1.11,324.8
"2009-12-30 01:11:00",1546986,2.218,353,1.399,0.158,1.562,100.4076,0.34,1.46,29.62,0,109.6,13.64,1.09,315.0
"2009-12-30 01:11:30",1546987,3.982,355.2,6.138,1.294,4.059,100.4076,0.34,1.598,29.59,0,109.6,13.61,1.09,317.2
"2009-12-30 01:12:00",1546988,4.131,359.4,6.046,1.175,5.469,100.4076,0.34,1.694,29.54,0,109.6,13.61,1.09,321.4
"2009-12-30 01:12:30",1546989,4.009,3.708,6.076,1.038,5.079,100.4076,0.34,1.626,29.61,0,109.6,13.61,1.09,325.7
"2009-12-30 01:13:00",1546990,3.529,358.8,7.019,1.206,4.893,100.4076,0.34,1.683,29.74,0,109.6,13.61,1.09,320.8
"2009-12-30 01:13:30",1546991,3.342,354.5,6.374,1.158,3.779,100.4079,0.34,1.52,29.31,0,109.6,13.61,1.09,316.5
"2009-12-30 01:14:00",1546992,2.434,349.5,1.52,0.156,1.67,100.4079,0.34,1.429,29.05,0,109.6,13.64,1.09,311.5
"2009-12-30 01:14:30",1546993,3.183,359.7,6.046,1.365,3.979,100.4079,0.34,1.577,29.18,0,109.6,13.61,1.09,321.7
"2009-12-30 01:15:00",1546994,3.037,2.916,7.199,1.306,4.478,100.4079,0.34,1.677,29.3,0,109.6,13.61,1.09,324.9
"2009-12-30 01:15:30",1546995,3.369,7.382,7.011,1.118,5.431,100.4147,0.358,1.641,29.42,0,109.6,13.61,1.11,329.4
"2009-12-30 01:16:00",1546996,2.93,5.766,7.843,1.154,4.677,100.4336,0.406,1.655,29.48,0,109.6,13.61,1.16,327.8
"2009-12-30 01:16:30",1546997,2.464,13.22,10.04,1.219,4.763,100.4419,0.427,1.647,29.54,0,109.6,13.61,1.18,335.2
"2009-12-30 01:17:00",1546998,1.254,13.67,3.856,0.222,1.13,100.443,0.43,1.459,29.51,0,109.6,13.64,1.18,335.7
"2009-12-30 01:17:30",1546999,2.139,11.15,5.395,1.188,3.089,100.4419,0.427,1.534,29.67,0,109.6,13.61,1.18,333.1
"2009-12-30 01:18:00",1547000,1.936,8.06,5.486,1.179,3.064,100.4419,0.427,1.631,29.67,0,109.6,13.61,1.18,330.1
"2009-12-30 01:18:30",1547001,3.105,10.45,6.452,1.105,4.893,100.4419,0.427,1.602,29.58,0,109.6,13.61,1.18,332.5
"2009-12-30 01:19:00",1547002,3.227,7.616,7.257,1.151,5.543,100.4436,0.431,1.782,29.71,0,109.6,13.61,1.19,329.6
"2009-12-30 01:19:30",1547003,3.07,11.58,6.217,1.071,5.551,100.4498,0.447,1.783,29.59,0,109.6,13.61,1.20,333.6
"2009-12-30 01:20:00",1547004,1.755,1.494,6.554,0.722,3.041,100.4588,0.47,1.662,29.35,0,109.6,13.61,1.22,323.5
"2009-12-30 01:20:30",1547005,1.585,0.545,6.234,0.627,2.253,100.4673,0.492,1.593,29.12,0,109.6,13.61,1.25,322.5
"2009-12-30 01:21:00",1547006,1.758,13.07,7.141,1.236,2.854,100.4744,0.51,1.587,29.03,0,109.6,13.61,1.26,335.1
"2009-12-30 01:21:30",1547007,2.198,19.66,7.617,1.191,3.633,100.4764,0.515,1.619,28.99,0,109.6,13.61,1.27,341.7
"2009-12-30 01:22:00",1547008,1.181,12.79,5.223,0.634,1.982,100.4772,0.517,1.59,28.93,0,109.6,13.61,1.27,334.8
"2009-12-30 01:22:30",1547009,2.892,25.33,7.529,1.187,5.358,100.4761,0.514,1.804,29.12,0,109.6,13.61,1.27,347.3
"2009-12-30 01:23:00",1547010,2.918,23.11,7.715,1.192,4.865,100.4764,0.515,1.788,29.12,0,109.6,13.61,1.27,345.1
"2009-12-30 01:23:30",1547011,2.588,15.93,5.186,1.111,4.19,100.4767,0.516,1.655,28.93,0,109.6,13.61,1.27,337.9
"2009-12-30 01:24:00",1547012,1.779,9.45,8.36,1.102,2.672,100.4764,0.515,1.568,28.81,0,109.6,13.61,1.27,331.5
"2009-12-30 01:24:30",1547013,2.17,8.86,6.176,1.196,3.505,100.477,0.517,1.722,28.89,0,109.6,13.61,1.27,330.9
"2009-12-30 01:25:00",1547014,0.907,359.7,5.119,0.158,1.756,100.4781,0.52,1.585,28.73,0,109.6,13.64,1.27,321.7
"2009-12-30 01:25:30",1547015,2.006,5.718,9.2,1.275,3.536,100.4792,0.522,1.695,28.8,0,109.6,13.61,1.28,327.7
"2009-12-30 01:26:00",1547016,2.345,4.269,8.21,1.278,3.738,100.4846,0.536,1.779,29.01,0,109.6,13.61,1.29,326.3
"2009-12-30 01:26:30",1547017,2.713,8.84,10.48,1.106,4.882,100.488,0.545,1.823,29.31,0,109.6,13.62,1.30,330.8
"2009-12-30 01:27:00",1547018,3.109,14.83,7.591,1.052,5.517,100.4931,0.558,1.818,29.41,0,109.6,13.62,1.31,336.8
"2009-12-30 01:27:30",1547019,1.979,14.97,7.298,1.261,2.842,100.4968,0.567,1.655,29.49,0,109.6,13.62,1.32,337.0
"2009-12-30 01:28:00",1547020,2.409,18.12,7.166,1.307,3.232,100.5016,0.579,1.765,29.87,0,109.6,13.62,1.33,340.1
"2009-12-30 01:28:30",1547021,2.118,16.84,2.507,0.437,0.865,100.5058,0.59,1.666,29.9,0,109.6,13.65,1.34,338.8
"2009-12-30 01:29:00",1547022,3.718,24.25,5.757,1.15,2.944,100.5089,0.598,1.699,30.11,0,109.6,13.62,1.35,346.2
"2009-12-30 01:29:30",1547023,4.556,29.11,5.456,1.156,4.976,100.5081,0.596,1.912,30.46,0,109.6,13.62,1.35,351.1
"2009-12-30 01:30:00",1547024,4.539,32.29,6.664,1.058,4.762,100.5081,0.596,1.876,30.58,0,109.6,13.62,1.35,354.3
"2009-12-30 01:30:30",1547025,4.808,32.56,4.849,0.905,5.349,100.5036,0.584,1.953,30.69,0,109.6,13.62,1.34,354.6
"2009-12-30 01:31:00",1547026,3.823,25.55,7.289,1.207,3.637,100.5013,0.579,1.76,30.59,0,109.6,13.61,1.33,347.5
"2009-12-30 01:31:30",1547027,3.273,23.69,4.381,1.073,1.867,100.4965,0.566,1.654,30.49,0,109.6,13.62,1.32,345.7
"2009-12-30 01:32:00",1547028,3.608,30.16,5.52,1.222,3.063,100.4843,0.535,1.733,30.59,0,109.6,13.61,1.29,352.2
"2009-12-30 01:32:30",1547029,3.214,32.39,5.723,1.127,2.546,100.4787,0.521,1.853,30.64,0,109.6,13.62,1.27,354.4
"2009-12-30 01:33:00",1547030,4.898,41.28,3.007,0.704,5.478,100.4792,0.522,1.881,30.55,0,109.6,13.62,1.28,3.3
"2009-12-30 01:33:30",1547031,5.069,40.51,3.941,0.669,5.593,100.4795,0.523,1.9,30.56,0,109.6,13.62,1.28,2.5
"2009-12-30 01:34:00",1547032,4.388,36.88,6.308,1.18,3.926,100.4792,0.522,1.726,30.43,0,109.6,13.61,1.28,358.9
"2009-12-30 01:34:30",1547033,3.949,35.68,6.281,1.163,3.02,100.4651,0.486,1.726,30.43,0,109.6,13.61,1.24,357.7
"2009-12-30 01:35:00",1547034,3.21,32.12,5.757,1.015,2.371,100.4487,0.444,1.722,30.48,0,109.6,13.62,1.20,354.1
"2009-12-30 01:35:30",1547035,3.889,34.59,6.439,1.187,3.445,100.4484,0.444,1.67,30.62,0,109.6,13.61,1.20,356.6
"2009-12-30 01:36:00",1547036,4.298,37.46,5.381,1.108,5.223,100.4478,0.442,1.847,30.94,0,109.6,13.62,1.20,359.5
"2009-12-30 01:36:30",1547037,5.087,36.12,4.595,0.723,5.711,100.4269,0.389,1.802,30.97,0,109.6,13.61,1.14,358.1
"2009-12-30 01:37:00",1547038,4.386,38.03,5.939,1.06,4.682,100.4144,0.357,1.685,30.96,0,109.6,13.61,1.11,0.0
"2009-12-30 01:37:30",1547039,3.23,32.93,4.724,0.879,1.724,100.4167,0.363,1.613,30.86,0,109.6,13.61,1.12,354.9
"2009-12-30 01:38:00",1547040,3.8,35.18,4.848,0.955,2.025,100.4156,0.36,1.525,30.77,0,109.6,13.61,1.11,357.2
"2009-12-30 01:38:30",1547041,4.946,40.75,5.983,1.176,4.124,100.4074,0.339,1.623,30.95,0,109.6,13.61,1.09,2.8
"2009-12-30 01:39:00",1547042,5.592,45.29,2.776,0.668,5.806,100.3898,0.294,1.705,31.12,0,109.6,13.61,1.05,7.3
"2009-12-30 01:39:30",1547043,5.187,43.92,3.461,0.691,5.957,100.3864,0.286,1.713,31.26,0,109.6,13.61,1.04,5.9
"2009-12-30 01:40:00",1547044,4.644,41.08,5.53,1.127,4.324,100.3876,0.289,1.638,31.28,0,109.6,13.61,1.04,3.1
"2009-12-30 01:40:30",1547045,3.753,36.4,6.045,1.201,2.306,100.3813,0.273,1.403,31.08,0,109.6,13.61,1.03,358.4
"2009-12-30 01:41:00",1547046,3.591,35.56,6.765,1.225,2.94,100.3615,0.222,1.433,31.22,0,109.6,13.61,0.97,357.6
"2009-12-30 01:41:30",1547047,3.963,37.64,6.266,1.206,4.028,100.3567,0.21,1.46,31.35,0,109.6,13.61,0.96,359.6
"2009-12-30 01:42:00",1547048,4.734,39.35,4.055,0.588,6.003,100.3598,0.218,1.621,31.57,0,109.6,13.61,0.97,1.3
"2009-12-30 01:42:30",1547049,4.752,36.89,5.54,0.718,5.754,100.3613,0.222,1.551,31.6,0,109.6,13.62,0.97,358.9
"2009-12-30 01:43:00",1547050,3.792,33.76,6.376,1.151,3.716,100.3618,0.223,1.474,31.54,0,109.6,13.62,0.98,355.8
"2009-12-30 01:43:30",1547051,3.977,37.26,6.514,1.196,2.861,100.3573,0.211,1.409,31.44,0,109.6,13.62,0.96,359.3
"2009-12-30 01:44:00",1547052,2.721,30.38,1.523,0.195,0.959,100.3457,0.182,1.262,31.32,0,109.6,13.65,0.93,352.4
"2009-12-30 01:44:30",1547053,4.001,35.02,5.511,1.223,3.679,100.3346,0.154,1.337,31.46,0,109.6,13.62,0.91,357.0
"2009-12-30 01:45:00",1547054,4.947,38.11,2.641,0.855,6.171,100.3315,0.146,1.545,31.78,0,109.6,13.62,0.90,0.1
"2009-12-30 01:45:30",1547055,4.977,35.7,3.868,0.587,6.237,100.3298,0.141,1.527,31.83,0,109.6,13.62,0.89,357.7
"2009-12-30 01:46:00",1547056,3.964,28.09,6.583,1.198,4.272,100.3301,0.142,1.335,31.63,0,109.6,13.62,0.89,350.1
"2009-12-30 01:46:30",1547057,3.605,28.37,6.257,1.161,3.3,100.3304,0.143,1.319,31.59,0,109.6,13.62,0.90,350.4
"2009-12-30 01:47:00",1547058,2.612,23.23,2.085,0.133,1.078,100.3313,0.145,1.195,31.52,0,109.6,13.65,0.90,345.2
"2009-12-30 01:47:30",1547059,3.666,27.08,5.895,1.268,3.227,100.3307,0.144,1.317,31.71,0,109.6,13.62,0.90,349.1